Vorticity
nan nan nan nan nan nan nan nan nan nan nan nan nan nan nan nan nan nan nan nan nan nan nan nan nan nan nan nan nan nan nan nan nan nan nan nan nan nan nan nan nan nan nan nan
nan 9 9 7 9 6 5 7 11 8 10 13 10 6 6 10 9 7 8 11 12 14 15 14 13 12 9 9 9 9 9 6 5 6 7 8 10 10 9 10 12 9 9 nan
nan 10 7 7 7 9 10 8 7 7 7 10 10 10 8 7 6 7 7 9 12 12 15 17 14 14 13 10 9 7 12 12 9 7 5 5 6 10 10 9 10 11 9 nan
nan 8 7 8 9 10 11 12 6 9 7 4 10 10 10 6 5 5 7 7 7 11 16 16 14 11 10 12 12 11 10 12 11 10 10 5 5 7 7 9 8 9 10 nan
nan 10 8 7 14 8 8 12 11 13 12 7 8 11 9 10 11 7 7 7 8 8 11 20 19 12 12 12 12 13 11 11 10 8 9 8 6 6 9 9 10 8 10 nan
nan 7 9 10 12 10 6 7 8 10 9 8 6 10 9 10 9 9 4 5 7 9 10 15 18 18 12 13 14 13 13 9 7 7 5 8 8 8 8 5 8 10 11 nan
nan 10 11 12 6 10 6 4 7 8 6 9 11 8 9 13 8 7 3 5 6 7 7 10 16 13 10 11 11 11 11 9 8 7 5 8 7 10 8 8 8 8 9 nan
nan 12 9 9 10 8 11 8 10 11 6 8 10 6 9 12 9 8 11 13 10 5 7 9 13 14 11 9 10 9 8 7 7 8 8 4 5 8 10 12 9 9 8 nan
nan 5 9 11 13 15 9 11 10 11 8 6 9 11 7 10 14 9 14 14 7 5 9 13 16 15 11 9 9 8 7 7 11 11 9 9 8 7 11 11 9 8 9 nan
nan 7 12 10 5 9 15 12 7 7 8 9 7 9 9 8 17 13 5 4 8 11 15 16 16 14 11 9 9 8 7 9 12 14 9 6 11 12 10 9 11 8 8 nan
nan 7 10 7 7 8 13 4 8 8 10 12 9 11 12 8 9 9 4 5 11 14 15 15 14 14 12 9 8 8 8 11 9 7 9 7 6 9 9 8 8 8 8 nan
nan 7 8 9 9 10 11 10 8 12 10 6 9 11 8 12 14 6 4 10 12 12 14 14 13 14 13 11 9 9 10 11 9 9 10 8 9 10 8 5 7 8 9 nan
nan 8 9 6 10 8 8 8 10 9 9 7 4 5 9 15 9 4 8 13 10 8 11 11 10 12 15 16 13 11 10 10 11 12 11 9 9 9 9 9 6 7 14 nan
nan 11 8 10 11 11 8 6 6 5 8 9 10 5 5 11 11 6 9 11 9 7 8 9 9 11 14 15 16 17 16 12 10 11 11 11 11 8 7 8 9 13 15 nan
nan 10 11 13 9 7 7 9 9 8 9 6 9 9 7 14 14 9 9 8 7 8 9 9 9 10 10 11 12 13 15 18 17 15 14 14 13 13 14 13 10 10 14 nan
nan 12 11 8 7 8 7 9 11 12 10 10 5 11 13 15 14 11 9 7 7 8 9 8 8 8 7 8 8 10 12 14 15 12 11 13 14 13 15 18 19 16 11 nan
nan 12 7 6 9 9 13 14 10 7 9 11 10 13 13 12 13 9 8 9 8 7 6 6 6 8 8 7 8 9 9 8 9 9 9 10 11 12 13 14 12 9 12 nan
nan 8 9 11 10 6 10 16 14 9 11 10 13 12 11 10 9 10 9 8 6 6 6 5 7 7 6 8 9 8 7 8 7 7 7 8 9 11 10 9 8 9 10 nan
nan 12 8 12 5 9 14 14 13 12 8 14 13 10 8 8 7 9 9 7 6 6 5 7 7 6 6 7 7 6 6 7 6 5 7 7 7 8 10 12 10 10 9 nan
nan 12 11 11 11 8 12 15 8 9 17 16 9 10 5 3 5 12 13 7 6 5 6 8 9 7 7 9 7 6 8 8 6 6 7 7 7 6 7 9 12 10 8 nan
nan 10 14 9 7 7 12 15 12 7 16 19 11 11 5 2 5 13 15 6 5 7 11 14 12 10 11 13 11 9 8 10 12 11 7 7 7 7 9 9 11 11 9 nan
nan 9 11 11 13 10 9 10 4 7 15 15 14 14 9 5 9 12 10 8 8 10 12 11 10 9 11 12 12 10 10 11 12 11 10 9 8 8 8 9 9 10 11 nan
nan 8 11 9 9 13 9 6 13 14 11 11 12 12 12 11 9 10 9 8 8 11 10 9 9 10 10 10 9 8 10 10 11 11 11 11 10 9 8 9 9 10 10 nan
nan 11 11 13 7 6 11 12 14 13 11 12 11 10 8 7 7 8 9 10 12 11 9 10 10 10 8 9 9 10 9 10 10 11 11 11 9 8 9 9 10 9 9 nan
nan 13 7 7 8 12 12 13 13 12 10 7 7 8 9 9 8 9 10 10 10 11 11 9 8 7 7 7 7 9 11 12 11 11 11 11 10 8 10 10 9 10 10 nan
nan nan nan nan nan nan nan nan nan nan nan nan nan nan nan nan nan nan nan nan nan nan nan nan nan nan nan nan nan nan nan nan nan nan nan nan nan nan nan nan nan nan nan nan
CAPE
0 0 0 0 0 0 0 0 0 0 0 0 1 115 351 620 575 628 611 553 968 1251 1336 1133 1071 1164 1297 1344 1262 1083 939 1283 1059 879 735 905 1069 1435 1665 1703 1772 1693 1639 1640
0 0 0 0 0 0 0 0 0 0 0 0 47 157 184 196 272 271 179 212 82 302 815 929 999 1065 1039 1230 1388 1378 1427 1491 1424 1137 1117 1065 1420 1576 1572 1805 1848 1697 1533 1659
0 0 0 0 0 0 0 0 0 0 0 0 38 90 153 146 310 281 376 337 476 847 1053 1003 770 941 993 1051 1229 1440 1252 1639 1525 1766 1468 1496 1500 1542 1483 1422 1599 1698 1677 1618
0 0 0 0 0 0 0 0 0 0 0 0 0 0 162 219 459 528 506 393 297 365 447 939 818 664 734 908 1130 1209 1173 968 1449 1543 1394 1563 1661 1975 1645 1918 1453 2287 1782 1803
0 0 0 0 0 0 0 0 0 0 0 0 0 20 210 78 308 556 257 96 124 270 492 494 700 807 731 666 1031 1231 1328 1042 924 892 796 1405 1760 2190 1910 2781 1989 2252 1691 1791
0 0 0 0 0 0 0 0 0 0 0 23 0 1 166 242 330 349 212 171 296 455 647 763 542 684 1045 1055 912 1218 1218 1056 593 386 671 950 1242 1436 1023 1907 2322 1852 1473 1418
0 0 0 0 0 0 0 0 0 5 15 21 0 66 222 0 238 327 273 233 324 402 473 715 810 975 1270 1435 1379 1290 1234 805 603 484 532 750 1008 1102 804 2033 1253 2027 2443 2191
0 0 0 0 0 0 0 0 0 0 0 1 0 204 322 17 61 195 197 160 294 268 262 470 737 968 1185 1267 1386 1364 1350 1069 660 498 174 8 67 524 1009 1913 2312 1967 1216 1274
0 0 0 0 0 0 0 0 0 0 0 24 52 262 135 175 139 126 33 225 316 28 48 272 568 814 1132 1211 1373 1383 1122 846 666 204 13 33 85 553 1095 1626 1708 1942 1390 1226
0 0 0 0 0 0 0 0 10 3 52 37 15 298 283 282 243 159 53 28 20 188 372 567 944 939 1211 998 813 423 251 260 452 233 140 269 465 1287 1475 1381 1478 1459 1569 1477
0 0 0 0 1 0 0 0 0 0 0 34 26 45 201 379 231 230 72 106 959 1324 1094 1078 1084 969 941 1026 682 328 289 429 717 268 369 341 729 703 848 853 1094 1156 1283 1446
0 0 5 0 0 0 0 0 0 0 0 0 0 0 0 287 178 86 36 745 1628 2010 1695 1298 1213 1133 868 822 681 631 633 591 441 376 553 479 513 661 527 557 462 678 1017 1282
0 0 24 1 0 0 0 0 0 0 0 0 0 0 0 241 134 93 78 1710 2011 2242 2121 2139 2266 1997 1447 1142 1005 779 604 514 462 446 436 567 616 574 464 740 784 1152 1527 1531
0 0 31 17 5 0 0 0 0 0 0 0 0 0 0 25 130 69 1020 2041 2041 1818 1754 1896 1968 2235 2871 2299 1558 1159 1014 843 941 813 697 668 676 655 916 725 492 1239 2053 1679
0 11 0 0 0 0 0 0 0 0 0 0 0 0 0 93 180 80 1510 1713 1444 1338 1513 1765 1845 2006 2153 2409 2503 2510 2635 2421 1669 1220 1200 1423 1651 1647 1816 1674 1335 1666 1682 1996
0 17 0 0 0 0 0 0 0 0 0 0 0 83 103 21 37 587 1573 1330 1247 1442 1586 1547 1578 1840 2076 2052 1931 2157 2089 2107 1898 1860 1819 1920 2124 2036 1969 1992 1744 1322 1080 859
0 0 0 0 0 0 0 0 0 375 549 255 137 226 467 660 597 1272 1315 1015 1294 1414 1347 1311 1317 1494 1997 1941 1748 1622 1599 1312 1114 1189 1446 1465 1469 1461 1436 1102 761 328 896 1271
0 0 0 0 0 0 0 266 2 571 567 386 213 388 781 1158 982 994 634 985 864 843 752 749 851 1177 1497 1561 1206 950 685 678 487 406 447 632 1072 1351 1027 642 554 368 735 291
0 0 0 0 0 0 183 559 651 711 440 461 498 767 805 513 561 617 357 291 355 285 263 252 172 140 298 636 1076 523 330 319 334 195 167 314 491 626 968 794 719 750 246 54
0 0 0 0 0 0 0 392 20 242 96 678 709 718 686 577 815 907 500 299 279 216 145 102 26 21 4 23 32 34 91 114 172 198 144 161 174 102 106 585 962 720 489 264
0 0 0 0 0 0 0 65 110 127 76 770 726 941 590 747 995 786 688 585 657 591 509 362 69 47 48 0 34 172 122 104 62 193 223 209 227 208 171 347 633 928 457 319
25 0 0 0 0 0 0 48 372 309 343 877 1123 950 832 801 300 538 651 546 147 0 0 13 29 5 0 0 3 30 77 99 40 96 157 205 263 215 37 339 423 415 772 746
0 0 13 0 0 0 0 8 43 82 782 678 1095 413 646 396 4 20 7 0 0 0 0 0 0 0 0 0 0 15 132 38 35 94 237 304 323 286 320 330 399 178 238 395
0 0 0 0 0 0 0 0 0 0 0 0 0 0 0 0 0 0 0 0 0 0 0 0 0 0 1 9 7 15 19 37 95 248 380 304 198 183 147 0 0 0 4 10
0 0 0 0 0 0 0 0 0 0 0 0 0 0 0 0 0 0 0 0 0 0 0 0 0 0 2 2 0 0 0 2 1 6 0 0 0 0 8 14 0 0 90 0
0 0 0 0 8 23 5 0 0 0 0 0 0 0 0 0 0 0 0 0 7 21 18 10 9 2 0 0 0 0 0 0 0 0 2 2 1 0 0 0 0 0 0 0